873  
ASUS43 KIND 201109  
RWRIN  
 
WEATHER ROUNDUP FOR INDIANA  
NATIONAL WEATHER SERVICE INDIANAPOLIS IN  
600 AM EST SUN JAN 20 2019  
 
NOTE: "FAIR" INDICATES FEW OR NO CLOUDS BELOW 12,000 FEET WITH NO  
SIGNIFICANT WEATHER AND/OR S TO VISIBILITY
.  
 
* - STATION DOES NOT REPORT WEATHER SUCH AS PRECIPITATION OR FOG.
 
 
+ - STATION NOT QUALITY CONTROLLED BY THE NATIONAL WEATHER SERVICE.  
USE DATA WITH CAUTION...ESPECIALLY DEWPOINT AND RELATIVE  
HUMIDITY OBSERVATIONS.  
 
INZ001>003-010>013-019-020-201200-  
NORTHWEST INDIANA  
 
CITY SKY/WX TMP DP RH WIND PRES REMARKS
 
GARY /AIRPORT/ LGT SNOW 18 12 79 NW14 30.17R VSB 1 WCI 4  
KNOX *+ FAIR 9 -8 47 N15 30.16R WCI -8  
LA PORTE + FAIR 9 -7 48 NE14G22 30.16R WCI -7  
MICHIGAN CITY+ CLOUDY 10 -8 44 E9 30.17R WCI -2  
MONTICELLO + CLOUDY 12 -4 48 N14G20 30.14R WCI -3  
RENSSELAER + CLOUDY 16 10 79 NE12 30.15R WCI 3  
VALPARAISO CLOUDY 13 -1 54 NE16 30.14R WCI -3  
 

 
 
LMZ046-743>745-201200-  
SOUTHERN LAKE MICHIGAN  
 
STATION/POSITION TIME TEMP WIND PRES WAVE
 
AIR SEA DIR/SP/G HT  
(UTC) (F) (DEG/KT/KT) (MB) (FT)  
BURNS HARBOR 1040 20 30/ 12/ 15 1021.0R  
 

 
 
INZ004-005-014>016-021>024-201200-  
NORTH CENTRAL INDIANA  
 
CITY SKY/WX TMP DP RH WIND PRES REMARKS
 
GOSHEN FAIR 3 -7 63 N14 30.12R WCI -15  
LOGANSPORT + FAIR 9 -4 56 N12 30.14R WCI -6  
PLYMOUTH *+ CLEAR 5 -9 51 N9G17 30.13R WCI -9  
ROCHESTER + FAIR 9 -6 52 N9 30.13R WCI -5  
SOUTH BEND FAIR 5 -10 50 N15G22 30.14R WCI -13  
WARSAW + FAIR 3 -6 66 N6 30.11R WCI -8  
 

 
 
INZ006>009-017-018-025>027-201200-  
NORTHEAST INDIANA  
 
CITY SKY/WX TMP DP RH WIND PRES REMARKS
 
ANGOLA *+ FAIR 0 -6 78 N7 30.06R WCI -13  
AUBURN + FAIR 3 -2 78 NW10 30.08R WCI -12  
FORT WAYNE FAIR 7 -1 70 NW12 30.08R WCI -8  
HUNTINGTON + FAIR 5 -4 66 N9G16 30.09R WCI -9  
KENDALLVILLE + FAIR 1 -8 66 N7 30.08R WCI -12  
 

 
 
INZ028-029-035-036-043>045-051>053-201200-  
WEST CENTRAL INDIANA  
 
CITY SKY/WX TMP DP RH WIND PRES REMARKS
 
CRAWFORDSVL + FLURRIES 13 10 86 N8 30.13R WCI 2  
GREENCASTLE + CLOUDY 18 12 79 CALM 30.12R  
LAFAYETTE FLURRIES 15 8 73 N10 30.15R WCI 2  
TERRE HAUTE FLURRIES 17 12 80 NW14G23 30.16R WCI 3  
 

 
 
INZ030>032-037>040-046>048-054>057-064-065-201200-  
CENTRAL INDIANA  
 
CITY SKY/WX TMP DP RH WIND PRES REMARKS
 
ANDERSON + FAIR 8 3 80 N7 30.09R WCI -3  
FISHERS *+ FAIR 7 7 100 N9 30.12R WCI -7  
FRANKFORT + CLOUDY 15 5 64 N7 30.13R WCI 5  
GREENWOOD *+ FAIR 11 6 79 N13 30.09R WCI -4  
INDIANAPOLIS FAIR 12 5 73 N16 30.11R WCI -5  
-EAGLE CREEK FAIR 11 4 73 N15 30.11R WCI -5  
KOKOMO + FAIR 7 1 76 N12 30.12R WCI -8  
MARION + FAIR 7 -2 67 N10 30.10R WCI -8  
MT COMFORT *+ FAIR 9 7 92 N14 30.08R WCI -8  
SHELBYVILLE FAIR 12 5 73 N22G31 30.08R WCI -7  
ZIONSVILLE + FAIR 8 4 82 N6 30.10R WCI -2  
 

 
 
INZ033-034-041-042-049-050-058-059-201200-  
EAST CENTRAL INDIANA  
 
CITY SKY/WX TMP DP RH WIND PRES REMARKS
 
MUNCIE FAIR 9 2 73 N16 30.06R WCI -8  
PORTLAND + FAIR 9 3 78 N13 30.05R WCI -7  
RICHMOND + LGT SNOW 12 10 92 MISG 29.98R  
 

 
 
INZ060-061-067>069-081>083-085>088-201200-  
SOUTHWEST INDIANA  
 
CITY SKY/WX TMP DP RH WIND PRES REMARKS
 
EVANSVILLE CLOUDY 22 17 81 NW13G20 30.16R WCI 10  
HUNTINGBURG + FLURRIES 21 18 86 NW12G20 30.13R WCI 9  
WASHINGTON + FLURRIES 21 15 78 NW15 30.14R WCI 7  
 

 
 
INZ062-063-066-070>080-084-089>092-201200-  
SOUTH CENTRAL AND SOUTHEAST INDIANA  
 
CITY SKY/WX TMP DP RH WIND PRES REMARKS
 
BATESVILLE + CLOUDY 12 9 85 NW10G24 30.02R WCI -1  
BEDFORD + FAIR 18 10 73 N15G23 30.09R WCI 3  
BLOOMINGTON MIX PCPN 18 11 74 N18G28 30.09R WCI 2  
FRENCH LICK *+ CLOUDY 21 9 58 NW8 30.09R WCI 12  
JEFFERSONVL + MIX PCPN 19 12 75 N10G17 30.06R WCI 7  
MADISON *+ CLOUDY 16 12 86 NW16G23 30.04R WCI 0  
NORTH VERNON + CLOUDY 12 5 73 N20G28 30.06R WCI -6  
SEYMOUR + FAIR 18 10 73 N17G23 30.08R WCI 2  
 

 
 
 
 
CLICK HERE TO GO TO PREVIOUS BULLETINS.

The Nexlab IN Page Main Text Page